THOR ABLESTAR DEB, 1425

Orbit data source: Space-Track

THOR ABLESTAR DEB, 1425 is space debris in LEO originally from a launch on Thu, 24 Jun 1965 UTC launched from the Air Force Western Test Range (AFWTR). Debris objects in space refer to the collection of defunct objects orbiting the Earth. Examples of debris include non-operational satellites, rocket bodies, and fragments generated from explosions, collisions, or faulty payload assembly.

Loading next visibility...
Identifier
1425, 1965-048C
Orbit
LEO
Last TLE update
23 hours ago
Origin
Manufacturer
APL
Mission
Spacecraft
Bus & Motor
Unknown
Mass
Unknown
Launch date (UTC)
1965-06-24 (60 years ago)
Launch vehicle
Unknown
Launch site
Air Force Western Test Range (AFWTR)
Object type
Payload
Rocket body
Debris
Shape & HBR
Unknown
Radar Cross Section
0.610 m², Medium (>0.1 m² and < 1m²)

Expand to show TLE details & history

TLE from 23 hours ago
0 THOR ABLESTAR DEB
1 01425U 65048C   25181.79362959  .00000051  00000-0  63858-4 0  9992
2 01425  89.8862 289.2115 0074643 157.5501 315.5489 13.48920207953054
Epoch: 2025-06-30T19:02Z
TLE epoch observation values (Epoch: 2025-06-30T19:02:49.596Z)
Latitude
67.58037°
Longitude
-95.86789°
Altitude
1,048.492 km
Speed
7.353 km/s
True Right ascension
07h 15m 44s
True Declination
67° 27' 49"
Sunlit
Object was in daylight at epoch
Visualization orbit readout
Latitude
74.96939°
Longitude
84.81719°
Altitude
1,078.967 km
Speed
7.324 km/s
Apparent Right ascension
18h 07m 41s
Apparent Declination
24° 51' 34"
Sunlit
Object is in daylight
Visualization observer readout
Local Sidereal Time
05:40:02
Azimuth
353.085° N
Elevation
-24.904°
Doppler factor
1
Orbital elements
Apogee altitude
1,128.905 km
Perigee altitude
1,017.665 km
Semi-major axis
7,451.422 km
Eccentricity
0.00746
Inclination
89.8862°
RAAN
289.2115°
Arg. of periapsis
157.5501°
True anomaly
Unknown
Mean anomaly
315.5489°
Eccentric anomaly
Unknown
Mean motion
3.37431 °/min
Orbital period
106.69 mins
BSTAR
0.000063858
Loading maneuver chart data...
Loading SW <> Apogee altitude chart data...

THOR ABLESTAR DEB Visibility forecast

Observer location: undefined°, undefined°

Span
Click to sort rows by Start time (UTC) header in descending order
Start Az.
Max El. time (UTC)
Max El. Az.
Max El.
End time (UTC)
End Az.
8 mins2025-07-01 18:15:20.888Z37.129° NE2025-07-01 18:19:20.888Z81.756° E20.914°2025-07-01 18:23:20.888Z125.22° SE
10 mins2025-07-01 20:01:20.888Z348.441° N2025-07-01 20:06:20.888Z271.21° WNW38.629°2025-07-01 20:11:20.888Z205.743° SW
9 mins2025-07-02 06:14:20.888Z117.435° SE2025-07-02 06:18:20.888Z74.657° E22.302°2025-07-02 06:23:20.888Z24.951° NE
11 mins2025-07-02 07:59:20.888Z198.566° SSW2025-07-02 08:04:20.888Z268.089° W39.453°2025-07-02 08:10:20.888Z347.379° N
|